Theta_e
314 317 319 318 316 315 315 314 314 314 314 314 314 314 315 314 312 312 312 313 315 314 315 316 315 314 314 313 313 313 313 313 313 313 312 311 310 311 312 312 312 312 312 310 309 309 309 308 308 308 307 307 306 305 304 303 302 301 301 300 299 299 299 299 298 298 297 297 297 297 297 297 297 296 296 295 295 295 294 294 293 293 293 293 293 293
313 316 318 317 315 314 314 314 313 313 313 313 314 315 314 314 313 312 312 313 314 314 314 315 315 314 313 314 313 313 313 313 313 313 313 312 311 311 311 311 312 312 312 312 311 308 307 308 308 307 307 306 305 305 304 303 302 301 300 300 300 299 299 299 299 298 298 298 297 297 297 296 296 296 295 295 295 294 294 294 293 293 292 293 292 293
315 316 316 314 314 314 314 313 313 313 313 314 314 315 315 314 313 313 314 315 313 313 317 318 315 313 313 313 312 313 313 313 313 313 313 313 313 312 311 312 311 312 312 312 313 310 306 305 306 306 305 306 306 305 304 303 302 301 300 300 299 299 299 299 299 299 298 298 297 297 297 296 296 296 296 295 295 294 294 294 293 293 292 292 292 292
318 318 315 312 313 314 314 313 314 314 313 314 315 315 315 314 314 314 316 319 315 314 320 320 315 312 313 313 313 312 312 312 313 312 313 313 313 313 312 313 312 312 313 312 313 313 308 304 304 304 304 305 305 304 303 302 301 300 299 299 299 299 299 299 298 298 298 297 297 296 296 296 296 295 295 295 294 294 294 293 293 293 292 291 291 291
316 319 318 314 312 313 314 314 315 315 314 315 315 315 314 314 315 314 315 319 316 315 318 317 314 314 314 314 313 313 313 312 312 312 312 312 313 313 313 313 313 313 313 313 313 314 314 310 304 303 304 304 303 303 302 301 301 300 299 299 299 299 298 298 298 298 297 297 296 295 295 295 295 294 294 293 293 293 293 293 293 293 292 291 291 291
313 316 318 316 315 315 314 314 316 317 315 314 316 316 315 315 315 315 316 316 316 319 319 317 317 317 318 318 315 314 315 314 314 313 313 313 313 313 313 313 314 313 313 314 313 314 316 312 304 301 303 303 302 303 303 302 301 300 299 299 299 298 298 298 298 297 297 296 296 295 294 294 294 293 293 293 293 293 293 293 293 293 292 292 291 291
313 313 315 318 319 318 317 316 316 317 315 315 321 321 316 315 316 316 317 316 319 323 319 317 319 319 319 321 320 318 318 316 316 315 314 313 313 313 313 313 313 313 313 314 314 314 315 312 306 303 302 302 303 303 302 302 301 300 299 299 299 298 298 297 297 297 297 296 296 295 295 295 294 293 293 294 293 293 293 292 292 292 292 292 291 291
314 313 315 317 318 320 319 317 316 316 315 317 324 327 322 320 320 318 318 319 321 322 319 319 321 320 319 320 322 322 321 318 318 318 316 313 313 313 313 312 312 313 313 314 315 315 314 312 309 305 302 302 303 303 302 301 300 300 299 299 298 298 298 297 297 297 296 296 296 295 295 295 294 294 294 293 293 293 292 292 292 292 292 292 291 291
316 315 318 317 316 319 317 316 318 317 316 319 322 324 324 323 322 320 319 322 321 320 319 320 321 321 319 318 320 319 318 319 318 318 317 315 314 313 313 313 313 313 313 314 316 315 315 311 306 303 302 302 303 302 302 301 300 300 299 299 298 298 297 297 297 297 296 296 296 295 295 295 295 294 294 293 293 292 292 292 292 292 291 291 291 291
316 316 317 317 317 316 315 319 322 319 318 319 321 322 325 328 327 323 321 321 322 321 320 322 321 320 320 319 319 317 316 319 317 315 315 315 315 314 314 314 313 314 314 315 315 315 313 308 303 303 303 302 302 302 302 301 300 299 299 298 298 297 297 297 297 296 296 296 296 295 295 295 294 294 293 293 293 292 292 291 291 291 291 291 291 290
313 312 314 317 317 316 318 319 317 318 318 317 321 326 327 330 329 329 328 322 320 320 321 324 322 319 319 318 319 318 319 319 315 315 316 314 314 315 313 313 313 313 314 315 316 316 312 305 302 302 302 301 301 301 301 300 299 299 298 298 298 297 297 297 296 296 296 296 295 295 295 295 294 294 293 292 292 292 291 291 291 291 291 290 290 290
313 311 315 320 321 321 320 316 314 316 317 317 324 326 324 326 327 328 328 323 320 321 322 325 321 318 319 318 317 319 320 318 314 315 318 316 318 319 316 313 313 314 313 314 318 320 315 307 304 302 300 300 300 300 300 299 299 299 298 298 298 297 297 297 296 296 296 296 296 295 295 295 294 294 293 293 292 292 291 291 290 290 290 290 290 290
317 314 315 317 317 319 318 318 320 319 317 318 323 322 320 323 323 322 324 323 321 321 322 322 318 317 318 317 316 316 319 319 316 315 316 318 322 324 320 315 313 314 313 314 318 321 316 310 308 304 300 298 298 298 299 299 299 299 298 298 298 297 297 297 296 296 296 296 296 295 295 295 294 294 294 293 293 292 291 291 290 290 290 289 289 289
322 317 314 313 314 318 318 318 320 320 318 317 320 321 321 322 322 321 325 324 320 320 320 316 316 318 319 320 318 315 314 317 317 315 315 316 320 322 321 316 314 315 314 314 319 322 316 310 308 305 300 298 298 298 298 298 298 298 298 298 298 298 297 297 297 296 296 296 296 296 295 295 294 294 294 293 293 292 292 291 291 290 290 289 289 289
320 317 316 316 318 319 317 315 318 323 322 315 318 323 320 324 327 325 326 323 318 323 322 314 318 322 319 319 321 317 315 316 316 315 314 313 314 317 317 315 315 315 314 318 323 323 316 310 308 304 299 298 298 298 298 298 298 297 297 297 297 297 297 297 297 296 296 296 296 295 295 295 294 294 294 293 293 292 292 291 291 291 290 290 290 290
317 319 320 317 318 317 316 317 317 320 322 316 320 323 318 322 326 320 322 322 316 321 321 316 320 323 318 316 318 318 317 317 316 314 313 313 313 314 314 314 315 313 314 322 327 323 315 310 307 303 299 299 299 298 298 297 297 297 297 297 297 297 297 297 297 296 296 296 295 295 295 295 294 294 294 293 293 292 292 291 291 291 290 290 290 290
316 321 322 315 314 314 313 315 316 318 320 316 317 320 317 319 322 317 321 323 316 316 319 318 320 320 317 317 317 316 315 315 316 316 315 315 313 313 313 313 314 312 315 323 326 321 314 311 308 302 299 299 299 298 298 298 298 298 297 297 297 297 297 297 297 297 296 296 295 295 295 295 294 294 294 294 293 292 292 291 291 291 290 290 290 290
317 317 320 317 316 313 309 312 316 316 317 318 319 318 316 317 320 320 322 324 319 318 319 319 318 316 316 320 321 318 316 315 319 317 314 314 312 311 312 313 313 313 318 324 325 321 315 312 310 303 299 300 299 299 299 298 299 298 298 297 297 297 297 297 297 297 296 296 295 295 295 294 294 294 294 293 293 292 291 291 291 291 290 290 290 290
317 314 318 319 317 315 312 314 317 313 312 318 320 317 317 319 321 321 321 321 319 319 319 317 317 315 316 319 320 317 317 317 317 314 313 314 314 313 312 312 313 313 319 325 327 322 315 313 311 304 300 300 300 300 300 299 298 298 298 298 297 297 298 297 297 296 296 296 295 295 295 294 294 294 293 293 293 292 292 291 291 290 290 290 290 290
316 315 319 319 315 315 314 315 321 318 313 313 314 314 315 317 320 321 321 321 320 318 319 318 318 317 319 322 319 316 316 317 315 315 316 318 316 313 312 313 314 314 317 323 326 322 316 313 310 304 300 300 300 300 300 299 298 298 298 298 297 297 297 297 296 296 296 296 295 295 295 294 294 294 293 293 292 292 292 291 291 290 290 290 290 289
316 316 317 317 315 314 313 316 321 322 317 314 314 315 313 313 318 319 317 319 319 318 318 319 319 317 318 321 318 314 315 315 315 315 318 320 316 312 312 313 313 314 316 320 323 321 317 314 309 303 301 301 301 300 300 299 299 298 298 298 298 297 297 296 296 296 296 296 296 295 295 294 294 293 293 292 292 292 291 291 291 290 290 290 289 289
317 318 317 316 315 314 315 317 319 319 319 317 316 316 315 314 318 318 316 318 318 317 318 318 319 319 317 316 314 314 316 318 320 319 319 323 320 316 317 315 313 314 316 317 316 316 316 314 310 304 302 301 301 300 299 299 298 298 298 298 297 297 297 297 297 296 296 296 295 295 295 294 294 293 293 292 292 292 291 291 291 290 290 290 289 289
319 318 317 316 316 317 318 319 318 317 316 315 315 315 316 315 316 317 318 318 318 317 316 317 318 319 316 315 314 313 315 318 321 318 318 321 319 317 317 315 312 313 313 313 312 313 313 313 311 305 302 301 300 300 299 298 298 298 298 298 297 297 297 297 297 297 296 295 295 295 295 294 294 293 293 292 292 292 291 291 291 290 290 289 289 289
319 317 317 317 318 321 321 320 318 315 313 314 315 314 314 314 315 316 317 317 317 317 316 317 318 317 315 315 314 314 315 316 316 315 315 315 315 315 314 314 315 315 315 314 314 315 313 312 310 307 306 305 301 300 300 299 298 298 298 298 297 297 298 298 297 296 295 295 295 295 294 293 293 293 293 292 292 292 291 291 290 290 290 289 289 288
319 318 319 319 319 321 321 321 319 316 313 313 314 313 313 314 315 316 317 317 316 316 316 317 317 317 315 315 314 313 314 313 312 313 313 313 315 318 319 320 320 318 318 318 319 318 316 315 313 310 310 306 301 300 300 299 299 299 298 298 297 298 298 297 297 296 295 295 294 294 294 293 293 293 292 292 292 291 291 290 290 289 289 289 288 288
320 320 320 319 320 321 321 321 321 320 317 313 313 314 313 314 315 314 316 316 315 316 316 316 316 315 314 313 313 312 312 312 311 312 313 313 315 316 317 318 317 315 315 316 316 317 318 319 319 317 314 307 301 301 301 300 300 299 299 299 298 298 298 297 297 296 295 295 294 293 293 293 293 292 292 292 292 291 291 290 289 289 289 288 288 287
316 318 319 318 319 320 319 319 319 321 319 316 315 315 314 314 314 314 315 315 315 315 315 315 315 315 314 313 313 312 312 312 311 311 312 312 313 313 312 313 313 312 312 312 313 314 316 319 319 319 317 309 301 301 301 301 301 300 299 299 299 299 298 297 297 296 295 295 294 293 293 292 293 292 292 292 291 291 290 289 289 288 288 288 287 287
311 312 315 316 316 317 318 318 317 318 318 317 316 315 314 314 314 313 314 314 314 316 316 315 315 315 314 313 312 312 312 312 311 311 311 311 311 311 311 312 312 312 311 311 313 314 314 314 313 314 315 309 301 300 301 301 301 301 301 301 300 299 298 297 297 296 295 294 293 293 293 293 293 292 292 291 291 290 289 289 288 288 287 287 286 286
311 311 313 314 314 314 314 315 316 316 316 316 316 316 315 315 315 313 313 312 313 315 315 314 315 315 314 312 312 312 311 311 311 311 311 311 311 311 311 311 312 313 312 311 312 312 312 311 311 313 313 310 305 302 301 301 302 302 301 301 301 300 299 298 297 296 295 294 293 293 293 293 292 292 291 291 290 289 289 288 288 287 286 286 286 286
313 313 314 313 313 313 313 313 313 314 314 315 315 315 315 315 315 315 314 312 312 313 312 312 313 313 312 311 311 311 311 311 311 310 310 310 310 310 310 310 311 311 312 312 311 310 310 310 311 311 311 311 310 307 304 302 303 302 301 301 300 299 299 298 297 296 294 294 294 294 293 292 292 291 290 290 289 289 288 287 287 286 286 285 285 285
312 314 314 315 315 314 314 313 313 313 313 314 314 314 314 314 315 315 315 314 314 313 312 312 313 312 311 310 310 310 310 310 310 310 310 310 310 310 310 309 309 308 309 309 308 308 308 308 309 309 309 310 310 307 305 304 304 302 301 300 299 299 299 298 296 295 294 294 294 293 292 292 291 290 290 289 289 288 287 286 286 285 285 285 284 284
310 312 313 314 315 315 315 315 314 313 313 313 313 313 313 314 315 315 315 314 315 315 314 314 314 313 311 310 310 310 310 310 309 310 309 309 309 308 306 304 304 303 303 303 303 303 303 304 306 306 307 308 306 304 304 304 303 301 300 300 300 300 299 297 295 295 294 294 293 292 292 291 290 290 289 288 288 287 286 286 285 284 284 283 283 283
310 311 312 313 314 314 314 314 314 314 313 314 313 312 312 313 314 314 314 314 313 314 314 315 314 313 312 312 311 311 310 310 310 309 308 307 305 303 301 301 301 300 300 300 299 300 300 300 301 303 303 303 302 302 303 303 301 301 301 301 300 299 297 295 295 294 294 293 293 292 291 291 290 289 288 288 287 286 285 285 284 283 283 282 282 282
310 310 310 312 313 313 313 313 313 314 314 315 314 313 312 312 313 313 313 313 313 313 313 313 312 311 311 309 308 308 307 308 309 306 301 300 300 299 299 299 299 299 298 298 298 298 298 298 298 299 299 299 300 300 301 301 300 301 301 301 300 298 296 295 294 293 293 292 292 291 291 290 289 288 287 287 286 285 284 284 283 282 282 282 281 281
309 310 310 311 312 312 312 313 314 315 315 314 314 313 311 310 311 312 312 312 311 310 309 307 304 300 299 298 298 298 299 301 303 300 297 296 297 297 297 296 297 297 297 297 297 297 297 298 297 297 296 297 299 299 299 300 299 300 300 300 299 297 296 294 293 292 292 292 291 291 290 289 288 287 286 286 285 284 283 283 282 281 281 281 281 280
309 309 309 310 311 312 312 313 314 315 314 312 313 314 312 310 310 311 313 310 304 301 300 299 296 295 294 294 294 294 294 297 301 299 296 295 295 295 295 295 295 296 296 296 296 296 296 296 295 295 295 296 297 297 297 297 298 298 298 298 297 296 294 293 292 292 291 291 291 290 290 289 288 286 285 285 284 283 282 282 281 281 281 280 280 280
308 309 309 310 311 311 312 312 312 312 312 311 310 308 304 303 303 305 310 306 297 295 296 295 294 294 293 293 293 293 293 297 302 301 295 293 294 294 295 294 294 295 295 294 294 294 295 294 294 294 295 295 296 296 295 295 295 296 296 296 295 294 293 291 291 291 291 290 290 289 289 288 287 286 285 284 283 282 282 281 281 280 280 280 279 278
307 309 309 310 311 310 310 310 310 312 311 306 302 299 297 297 297 298 305 304 296 294 295 294 294 294 293 293 293 292 293 295 297 297 294 293 293 293 293 294 293 293 293 292 292 292 293 294 294 294 295 295 296 296 295 294 294 294 294 293 292 291 291 290 290 290 290 289 289 288 287 287 286 285 284 283 282 282 281 281 280 279 279 279 278 278
305 307 307 308 310 310 311 310 310 312 308 299 296 297 296 296 295 299 308 306 296 294 294 293 293 293 292 292 292 292 293 293 293 293 293 293 293 293 293 293 292 292 291 291 292 292 293 294 294 294 295 295 296 296 295 294 294 293 292 291 290 289 289 289 289 289 289 289 288 288 287 286 285 285 284 283 282 282 281 280 279 279 278 278 278 277
302 305 305 306 307 307 308 308 308 309 303 296 296 297 295 295 298 306 313 304 294 293 295 293 293 293 292 292 292 292 293 293 292 293 293 293 292 292 292 292 292 292 291 291 293 293 293 294 294 294 294 295 296 296 295 294 294 293 291 290 289 288 288 288 288 288 288 288 288 287 287 286 285 284 283 282 281 281 280 279 278 278 277 277 277 277
300 300 301 302 303 304 305 305 305 305 300 294 295 296 295 296 300 304 304 298 293 295 295 292 293 293 292 292 292 292 293 293 292 292 292 292 292 292 292 292 292 292 292 292 293 293 293 293 293 293 294 294 295 296 295 294 293 293 291 289 289 290 290 289 288 288 288 288 287 287 286 285 285 284 283 282 281 280 279 279 278 277 276 276 276 276
297 297 299 300 299 300 300 300 302 303 299 294 294 295 295 295 295 295 295 295 295 296 294 292 293 293 292 292 292 292 293 293 293 292 292 292 292 292 292 292 292 292 292 292 292 292 292 292 292 293 293 294 294 295 295 294 293 293 292 289 291 293 292 289 288 288 287 287 287 286 286 285 284 283 282 281 281 280 279 278 277 277 276 276 275 275
295 295 296 296 296 296 297 298 300 302 299 294 293 294 294 293 292 292 293 295 296 295 293 292 292 292 292 292 292 292 292 292 292 292 292 291 291 291 292 291 291 291 291 291 291 291 291 291 292 292 292 293 293 294 295 294 293 293 292 290 293 296 294 291 290 289 287 287 286 285 285 284 283 282 281 281 280 279 278 277 276 276 275 275 274 274
294 293 293 294 296 296 296 297 298 298 296 295 294 294 294 293 293 294 295 295 295 294 293 293 292 292 292 292 291 291 291 291 291 291 291 290 290 290 290 290 290 290 290 290 290 290 290 291 291 291 291 292 292 293 294 294 293 292 292 292 295 296 294 293 292 289 288 287 286 285 284 283 282 281 281 280 279 278 277 276 275 275 274 274 274 273
294 295 294 294 295 294 294 295 295 295 294 295 296 295 293 292 294 296 297 296 295 293 293 293 292 292 292 291 291 290 290 290 290 289 289 289 289 289 289 289 289 289 289 289 289 289 289 290 290 290 291 291 291 292 292 293 293 292 292 293 295 295 294 293 291 288 288 287 285 284 283 282 281 281 280 280 279 278 276 275 274 274 273 273 273 273
293 294 293 293 293 292 292 293 293 293 293 293 293 292 291 292 296 298 298 296 295 293 293 293 292 292 291 290 290 289 289 288 288 288 288 288 288 288 288 288 288 288 288 288 288 288 288 288 289 289 289 289 290 290 291 292 292 292 292 293 294 294 293 292 290 288 287 286 285 284 282 281 280 279 279 279 278 277 276 275 274 274 273 273 273 273
292 291 291 291 291 291 291 291 290 291 291 290 290 289 291 295 298 299 298 295 294 293 293 292 292 291 290 289 289 288 287 287 287 287 287 287 286 286 286 286 286 286 286 286 286 286 287 287 287 288 288 288 288 289 289 290 291 291 292 293 293 293 292 290 288 287 286 285 284 283 281 280 279 278 277 277 277 276 276 275 274 274 273 273 273 273
291 291 291 292 291 290 290 290 289 290 289 289 288 288 291 296 297 296 295 293 292 292 292 291 290 289 288 287 287 286 286 285 285 285 285 284 284 284 284 284 285 284 284 284 284 284 285 285 286 286 286 287 287 287 288 289 289 290 291 291 292 292 291 289 287 286 285 284 283 281 280 279 278 277 276 276 275 275 275 274 274 274 274 273 274 273
291 291 292 291 290 290 290 289 289 289 289 289 289 289 292 296 294 292 292 291 290 290 290 288 288 287 286 285 284 284 284 283 283 283 283 282 282 282 283 283 283 283 283 282 282 283 283 283 284 284 285 285 285 285 286 287 288 289 290 290 291 291 290 288 287 286 284 283 281 279 278 278 277 276 276 275 275 275 275 274 274 274 274 274 274 274
290 290 291 290 290 289 289 288 289 288 288 288 289 289 292 293 291 289 289 289 288 287 285 284 284 283 282 282 282 282 282 282 281 281 281 281 281 281 281 281 281 281 281 281 281 281 281 281 282 282 282 283 283 283 284 285 285 286 286 287 289 290 289 288 286 284 282 281 279 278 277 276 276 275 275 275 274 274 274 274 273 273 274 274 273 274
290 290 290 289 289 289 288 288 288 288 288 288 288 290 291 291 289 288 287 286 285 284 282 281 281 280 280 280 280 280 280 279 279 279 279 279 280 280 279 279 279 279 279 279 279 279 279 279 280 280 280 280 280 281 281 282 282 282 283 284 286 287 288 287 285 283 282 280 279 278 277 276 275 275 274 274 274 273 273 272 272 273 273 273 273 274
Wind_Speed
4 4 3 6 10 12 10 11 16 16 11 8 5 6 9 9 9 11 14 11 5 5 9 12 16 17 16 18 17 15 14 13 14 14 13 12 12 12 13 15 14 14 16 18 21 19 21 26 30 34 36 36 36 36 37 40 42 43 43 43 44 44 44 44 43 43 42 42 40 39 41 42 42 42 41 40 41 40 40 39 38 37 37 35 33 32
3 5 8 13 15 13 10 11 13 11 8 7 6 8 9 8 12 13 13 13 5 5 9 11 15 18 16 16 16 12 12 15 16 16 17 16 14 12 14 18 17 15 14 15 17 15 17 23 27 31 33 34 35 36 39 42 44 45 44 46 46 45 45 47 47 46 46 46 45 43 44 44 42 42 43 43 43 43 41 41 39 39 38 36 35 33
3 5 13 17 13 9 7 6 7 9 9 8 6 7 8 7 11 12 11 13 5 4 8 11 13 16 14 14 15 13 13 15 17 16 18 17 13 13 15 17 17 16 16 16 16 13 13 20 25 28 31 35 38 39 41 42 43 44 44 45 45 46 47 48 48 48 47 47 45 43 42 41 40 40 43 43 42 42 42 41 40 39 39 37 36 35
5 8 16 16 9 7 9 6 6 7 6 7 6 6 8 7 8 9 7 8 5 3 6 9 11 12 10 10 12 15 16 15 16 17 17 14 12 16 17 16 15 17 18 18 17 12 10 15 20 25 29 34 35 34 36 39 40 42 44 45 45 46 48 48 48 48 46 43 41 38 36 37 36 36 38 38 37 40 41 41 40 40 39 38 37 36
10 10 10 11 10 10 11 9 7 6 7 9 9 8 11 11 12 12 6 6 5 5 5 7 12 10 9 12 13 14 15 14 15 16 15 15 15 16 16 16 17 19 19 18 17 12 8 10 16 24 28 30 31 33 37 41 42 43 44 45 46 46 47 47 47 46 43 40 38 34 29 29 31 30 31 33 36 39 41 42 43 42 41 39 38 38
12 8 5 8 9 10 11 9 8 8 9 8 8 13 18 16 14 14 10 8 6 6 4 1 9 9 7 12 13 10 10 11 11 12 15 16 15 14 15 17 18 19 18 17 17 13 9 9 14 21 25 27 31 36 40 42 43 43 44 45 45 45 46 46 46 44 43 41 40 37 33 31 31 28 32 40 43 43 44 44 44 43 41 40 40 39
7 7 7 9 9 10 9 8 9 11 9 9 6 14 18 14 11 12 9 5 3 6 4 3 2 9 5 7 9 10 10 12 9 10 14 14 13 14 14 16 17 16 14 13 14 12 10 10 11 15 23 28 32 36 37 38 40 41 41 44 45 45 45 44 44 44 44 42 42 42 41 39 38 36 40 44 42 41 43 42 41 42 41 41 41 40
5 6 8 10 9 7 7 9 10 12 8 8 4 9 11 9 9 8 6 5 4 4 4 2 4 8 12 5 10 12 10 10 10 12 15 13 13 14 14 15 17 16 13 10 11 11 11 11 11 15 23 31 33 33 33 35 38 40 40 43 44 43 43 43 44 45 46 45 44 44 42 40 42 42 40 38 35 36 39 39 40 41 42 41 41 40
5 6 9 10 7 6 9 10 9 12 8 6 3 6 6 6 6 4 4 5 2 4 4 4 6 4 13 5 8 10 9 8 11 15 17 15 14 14 15 17 17 15 13 10 10 12 11 11 14 20 24 29 30 30 33 36 38 39 39 40 42 41 41 42 43 45 47 47 45 44 43 41 42 41 35 31 33 34 36 38 39 40 41 42 41 41
2 4 7 9 7 8 9 6 7 13 9 3 6 5 4 3 2 4 2 1 2 5 6 6 6 4 11 4 5 3 5 8 12 14 15 14 12 12 14 17 16 11 12 10 10 11 10 11 17 21 21 24 28 30 33 34 35 36 36 38 40 40 40 41 43 45 46 46 44 44 45 43 40 37 32 30 31 33 35 37 39 39 41 42 42 41
2 0 2 5 5 6 5 2 3 8 6 2 6 5 6 4 5 4 1 4 1 9 6 10 12 8 8 4 4 4 5 8 9 8 10 11 12 13 13 15 14 12 12 10 9 8 8 9 13 16 17 21 25 27 29 31 32 34 36 37 39 40 39 40 42 45 46 46 46 46 46 45 41 37 34 32 32 35 37 38 39 40 41 42 42 42
3 1 2 3 2 4 5 3 1 1 3 4 4 4 3 4 4 4 4 4 2 9 6 11 13 11 10 6 3 5 5 5 7 9 10 12 13 13 12 12 13 13 13 10 8 7 6 6 8 12 15 19 22 25 28 30 32 34 36 38 38 39 40 41 43 45 46 46 47 47 45 45 43 39 37 37 37 37 39 40 39 39 39 40 41 41
4 6 5 1 1 5 5 2 3 5 3 4 4 4 1 4 3 2 3 0 4 8 6 8 7 7 11 7 5 10 10 7 9 10 11 12 12 12 12 13 12 11 11 9 7 6 6 7 8 9 12 17 22 26 30 32 34 35 37 38 39 41 42 42 42 44 45 47 49 48 46 45 43 40 40 40 39 39 40 40 39 40 40 40 41 43
5 5 3 3 3 4 8 6 3 2 3 6 5 6 5 3 3 4 4 3 5 8 5 4 5 5 7 4 10 15 14 12 10 10 12 12 11 11 12 12 9 9 12 9 6 6 6 8 9 9 12 16 22 26 30 32 35 36 36 38 40 41 42 42 43 45 46 48 50 48 47 45 42 42 42 42 40 40 40 40 41 43 43 43 45 47
3 8 3 6 3 5 10 11 8 4 4 6 5 5 5 6 4 4 4 6 7 6 4 1 4 5 2 2 9 11 9 9 8 9 10 9 10 10 10 11 10 11 12 6 5 6 7 9 9 8 12 16 21 25 28 31 33 34 36 39 40 40 41 44 44 45 46 49 49 47 47 45 44 44 43 42 42 40 40 41 42 43 43 44 46 46
4 8 6 3 1 7 9 6 4 5 0 3 4 4 4 6 5 4 6 6 4 3 4 3 4 5 3 5 7 7 7 8 7 7 7 9 12 11 11 12 13 13 9 3 2 6 7 7 8 8 11 15 18 22 26 29 32 35 37 39 41 41 41 42 43 45 48 48 46 45 47 46 45 43 42 43 43 42 41 41 41 42 43 43 43 43
4 6 4 1 1 3 4 2 1 4 3 1 3 3 4 4 6 4 6 3 1 4 6 3 5 6 5 7 7 4 6 7 7 8 9 12 13 11 12 13 13 12 8 3 4 7 6 6 7 9 12 16 20 24 28 32 37 39 39 38 40 39 37 39 43 45 46 45 44 45 47 46 45 45 45 45 44 42 40 39 40 41 41 42 42 42
4 5 3 2 1 2 1 1 2 0 4 5 3 5 1 2 2 3 2 2 2 8 6 4 10 8 4 7 6 4 5 7 9 10 10 10 10 10 12 13 12 12 8 5 7 8 7 8 8 9 14 20 24 28 32 36 38 38 37 37 38 37 39 43 45 46 45 43 43 45 45 46 46 47 46 45 42 40 38 39 40 40 40 42 42 41
2 4 4 1 2 3 2 0 3 3 2 4 3 3 3 1 3 2 3 3 6 9 6 8 15 10 5 7 7 5 7 9 10 9 8 9 10 11 12 14 13 10 8 7 7 8 8 9 9 10 15 20 25 28 31 33 33 34 35 36 36 38 42 43 42 42 42 42 43 44 45 45 46 45 44 43 40 39 39 40 41 40 41 41 41 41
1 3 5 1 2 2 3 1 4 2 1 0 0 0 2 3 4 3 3 3 5 9 7 9 12 9 6 6 6 9 9 8 10 9 8 11 12 11 11 12 12 9 8 8 7 8 9 10 10 13 17 21 24 25 26 27 30 34 36 35 36 38 39 38 39 41 42 44 45 44 43 43 44 44 43 41 40 40 41 42 41 41 41 40 40 41
1 4 8 3 1 1 2 5 7 7 5 3 3 3 3 3 1 1 2 1 3 7 7 8 9 9 8 4 7 12 10 9 11 10 10 10 9 10 10 10 11 9 7 8 8 10 11 10 9 12 16 18 18 20 22 26 30 33 33 35 38 38 36 37 40 42 43 44 44 43 43 43 43 42 41 40 40 41 42 42 42 42 41 41 41 42
1 3 7 5 2 5 10 8 9 11 10 7 7 8 8 7 4 4 6 5 5 7 7 9 8 8 10 8 9 12 9 8 9 8 8 8 8 9 9 9 10 8 8 10 10 11 11 9 8 8 11 13 16 18 21 25 28 29 32 36 38 36 37 40 42 44 45 44 43 43 44 43 41 40 40 40 40 41 42 42 43 43 42 42 42 43
3 2 5 8 7 9 11 7 5 9 8 5 5 6 7 8 7 8 11 8 7 7 7 8 9 7 11 17 17 13 9 7 7 8 7 8 8 8 8 9 9 8 10 10 9 9 8 6 6 7 10 13 17 19 20 23 27 30 34 36 35 35 40 42 44 44 44 41 42 43 43 41 40 40 40 41 42 43 43 43 43 43 43 43 43 43
3 3 7 9 6 6 8 8 6 4 3 3 5 7 8 9 10 11 9 5 5 7 6 7 10 7 10 18 19 14 9 8 8 8 8 8 6 6 8 9 8 8 9 10 9 7 6 6 6 7 9 10 13 17 20 23 28 31 33 34 35 39 43 44 43 40 38 39 41 41 40 40 40 40 41 43 44 45 44 43 42 43 43 43 42 42
4 5 7 8 7 7 5 6 8 6 5 5 7 8 9 10 11 8 3 2 5 8 10 10 10 8 9 14 16 15 13 11 10 7 7 7 6 6 7 7 8 8 8 8 8 7 6 6 6 6 7 8 11 16 19 23 27 29 32 35 37 40 43 42 40 38 37 39 39 38 39 40 41 41 43 44 45 45 44 43 42 43 43 43 42 42
5 6 7 8 9 10 9 8 7 5 5 4 4 9 11 12 13 10 6 6 9 11 13 12 10 10 12 14 17 20 21 19 15 9 6 6 7 7 7 8 9 10 11 12 9 6 7 6 7 9 9 8 11 14 18 23 27 30 32 34 36 38 39 38 37 37 37 38 37 37 39 40 41 43 45 46 45 44 43 42 42 43 43 43 43 42
1 6 9 12 13 13 13 12 6 3 4 4 4 10 13 13 14 12 8 10 11 12 13 13 13 14 14 15 19 23 23 22 21 15 9 8 9 10 10 10 10 11 12 12 8 7 7 7 9 11 9 8 11 16 20 23 26 29 29 32 36 38 38 36 35 36 37 37 37 38 39 41 44 46 46 46 45 42 42 42 42 43 43 43 43 43
1 5 11 16 19 18 18 20 18 13 13 12 11 12 14 13 13 12 13 15 13 12 12 12 14 17 16 16 20 23 23 23 22 18 14 12 13 12 10 9 10 11 10 8 8 10 11 11 12 11 8 8 11 16 21 24 27 28 29 32 35 36 38 36 34 35 37 36 37 38 41 43 45 45 44 43 41 40 40 41 42 42 42 42 42 43
3 7 11 15 18 20 20 23 23 20 18 18 17 18 20 19 17 15 17 17 14 13 15 14 16 19 16 14 17 21 22 22 20 18 18 17 17 15 12 10 9 9 9 8 9 12 13 14 15 13 10 8 9 14 18 21 25 26 28 32 34 34 36 36 34 35 35 35 37 40 42 42 42 41 40 39 39 39 40 41 41 41 41 42 43 43
4 7 11 15 18 19 19 21 22 21 21 19 20 23 25 25 24 22 21 19 18 19 19 18 21 21 15 14 18 20 20 18 17 19 21 21 21 20 17 13 11 10 9 10 12 13 12 13 14 13 12 11 12 15 17 20 23 25 29 32 31 32 34 35 35 35 35 36 40 41 40 38 38 37 37 37 38 39 39 40 40 40 40 41 42 42
4 7 11 13 13 13 16 18 19 20 21 22 24 25 25 25 25 25 23 20 19 21 22 23 23 20 17 19 22 21 20 19 19 22 23 23 25 23 16 12 11 11 10 10 12 12 11 12 12 13 13 14 17 19 20 24 26 26 27 28 29 31 33 34 34 34 34 37 39 37 35 35 35 35 36 37 37 38 38 39 39 40 40 40 40 40
3 4 6 7 8 9 12 16 19 21 22 24 25 24 23 23 22 22 21 20 20 22 23 22 18 15 17 20 22 22 21 20 21 23 23 20 18 15 12 12 12 13 13 13 13 13 13 13 12 13 14 16 18 20 23 26 25 23 25 27 29 31 31 31 32 32 34 36 35 32 33 35 35 35 35 36 37 38 38 39 39 39 39 39 39 39
3 4 3 5 7 8 11 16 18 17 16 15 17 21 25 25 24 22 20 21 22 20 18 17 17 17 18 18 17 17 17 17 18 16 12 10 10 11 12 12 12 12 12 12 13 13 14 13 12 12 14 15 18 22 26 27 23 23 26 26 25 24 25 28 31 32 34 34 32 32 34 35 34 35 36 36 37 37 37 38 39 39 39 39 38 38
5 6 5 4 5 6 9 12 11 10 10 9 10 18 24 26 26 25 23 25 27 22 18 15 13 13 13 11 11 12 13 14 11 5 8 9 10 10 10 10 10 11 12 12 12 12 12 12 12 13 16 18 22 27 31 30 26 28 31 29 23 21 23 27 30 31 31 30 30 32 33 33 34 34 35 35 36 36 37 38 39 38 38 38 38 38
8 9 7 5 5 6 8 9 9 9 9 5 4 10 18 23 25 25 25 25 21 13 8 6 10 14 13 13 13 11 14 16 8 10 13 12 11 11 11 11 11 12 12 12 12 13 13 12 13 14 18 23 26 28 29 29 29 29 31 29 23 21 22 24 26 27 27 27 29 31 32 33 34 34 34 34 35 36 37 37 37 37 37 38 39 40
11 10 7 6 7 7 7 9 11 8 4 2 3 5 8 11 13 16 19 13 6 10 10 10 11 12 12 14 14 13 16 15 2 7 12 14 13 11 11 11 11 11 11 11 11 11 12 13 15 16 19 24 27 28 27 29 29 28 28 26 20 18 19 20 22 23 24 26 29 32 34 35 34 34 34 35 35 36 36 37 37 38 38 38 38 38
11 9 6 7 8 7 9 11 11 12 10 8 6 5 5 5 8 11 11 3 11 13 10 10 11 11 12 13 13 15 17 12 1 4 13 16 14 12 11 10 10 9 10 11 12 14 16 18 21 23 25 25 26 27 28 30 30 27 25 22 16 14 14 15 18 21 23 26 28 30 32 34 34 34 34 35 36 37 37 37 38 38 38 38 37 36
8 9 7 7 6 8 13 13 11 13 11 5 6 8 8 9 11 11 7 1 8 10 9 9 10 11 11 11 13 15 14 10 5 6 12 16 15 13 12 12 11 10 9 11 14 17 20 23 25 28 29 27 27 30 31 30 29 26 23 18 13 10 10 13 17 18 19 20 21 23 26 29 31 33 34 36 38 38 37 37 37 38 39 39 38 37
4 6 7 7 6 8 12 11 10 10 4 4 9 11 11 14 16 10 5 3 6 8 7 8 9 9 10 10 11 12 10 9 8 8 10 14 15 13 13 13 12 12 13 14 15 17 21 25 26 28 28 27 28 33 34 31 28 24 20 17 13 10 11 13 15 14 15 16 17 19 22 25 27 29 30 33 34 34 34 35 34 35 36 37 36 36
5 3 4 6 7 9 11 11 9 5 1 4 9 10 12 14 11 5 4 1 8 7 4 7 6 5 6 6 6 6 5 5 8 9 11 13 13 12 11 12 13 13 14 17 20 21 22 24 24 23 24 25 28 33 34 31 27 22 18 16 13 12 13 14 13 13 14 16 16 18 21 24 26 27 27 28 27 27 29 30 30 32 33 33 33 33
2 2 3 5 7 9 10 10 7 2 3 3 8 9 11 11 4 1 4 6 9 6 2 5 5 5 4 4 4 3 2 4 7 10 11 12 12 11 11 12 14 15 15 19 23 24 24 23 22 21 22 24 28 32 33 29 24 20 17 14 14 16 17 15 14 13 13 14 15 17 20 23 26 26 26 27 26 26 27 28 29 30 32 31 31 31
1 2 3 4 5 6 5 7 8 5 3 6 10 8 8 6 2 4 6 6 5 5 4 4 5 5 4 4 4 4 5 6 8 9 10 10 11 12 11 12 14 16 17 19 21 21 21 21 22 23 24 26 27 29 31 28 22 20 17 13 15 21 21 17 15 14 13 13 14 16 19 22 24 25 26 26 27 28 28 28 29 31 32 31 30 30
3 4 4 4 4 5 6 7 7 6 1 10 13 7 5 3 3 6 6 5 5 4 5 5 4 3 4 4 4 5 6 6 7 7 9 10 11 11 12 12 13 14 16 18 19 21 21 19 19 22 24 27 28 28 29 26 22 21 17 14 18 23 21 18 16 14 13 13 13 15 18 21 23 24 25 25 27 29 28 28 30 31 31 31 30 29
3 3 5 5 3 4 5 6 5 5 8 10 7 2 2 2 5 5 4 4 4 3 4 4 3 3 2 4 5 5 5 6 7 7 9 10 10 11 11 12 12 13 15 17 19 23 23 20 20 23 25 26 27 28 28 25 23 21 19 20 24 23 20 19 18 14 13 13 13 14 17 19 21 24 25 26 27 28 27 28 29 29 30 31 30 28
3 4 5 5 4 4 5 7 8 8 9 6 1 3 7 7 5 5 5 5 5 4 4 3 4 4 3 3 6 6 5 6 7 7 9 10 10 11 11 11 12 14 16 18 21 23 23 22 23 25 26 26 27 27 27 26 23 21 23 27 29 25 21 19 17 15 15 14 14 16 17 19 22 25 27 28 30 31 30 31 30 29 29 30 29 27
5 6 5 3 4 5 7 8 8 7 8 8 6 6 9 8 5 5 6 6 5 4 4 3 4 5 4 4 5 6 6 7 8 8 9 9 10 10 10 10 12 14 16 18 20 22 23 23 23 23 24 28 29 27 26 26 24 22 27 33 33 29 24 20 17 17 17 16 17 18 19 21 23 25 28 30 33 34 34 35 34 32 31 30 29 28
5 6 5 4 4 5 6 8 7 7 9 12 11 10 9 7 6 6 6 5 5 4 4 4 5 5 5 5 5 7 8 8 8 9 8 8 9 10 10 10 11 12 14 16 19 23 23 20 18 19 21 26 29 28 28 28 27 26 29 33 34 32 28 22 20 20 20 20 20 21 22 24 25 26 28 30 32 33 33 34 35 33 31 31 30 28
4 2 2 5 6 6 8 10 10 10 12 13 11 8 6 6 7 5 4 4 4 4 4 4 4 5 5 5 6 7 9 9 9 8 8 8 8 9 10 10 11 12 16 19 21 23 21 18 18 19 20 24 28 29 29 29 30 30 30 32 34 33 28 25 23 23 23 23 22 23 25 27 28 28 29 31 33 33 33 34 35 35 35 37 38 34
1 1 3 6 7 6 8 11 12 12 13 11 9 7 6 6 6 5 4 5 5 5 4 4 5 5 5 6 7 6 9 10 9 8 9 9 9 9 9 10 12 14 17 19 20 21 21 20 20 21 22 25 28 29 28 28 30 30 30 31 33 31 27 26 26 25 24 23 22 23 25 26 28 29 29 29 31 32 33 33 35 35 35 36 38 37
2 6 8 6 5 7 10 11 11 9 8 9 9 8 6 6 5 5 5 5 4 3 3 5 6 6 6 6 6 5 8 10 9 9 9 9 10 11 11 11 12 14 18 20 21 22 22 21 22 23 25 28 29 28 28 29 30 31 31 32 33 30 28 28 26 24 23 22 22 23 24 25 26 27 26 25 25 26 26 27 28 29 27 28 31 33
7 9 9 6 8 11 12 12 11 7 7 10 11 7 6 6 5 5 5 4 3 3 3 4 6 8 8 7 6 6 7 9 10 10 9 9 10 12 13 14 13 13 18 21 20 19 20 22 23 24 25 28 30 29 28 30 32 33 33 32 32 31 29 28 25 22 22 22 24 26 26 25 24 24 24 23 22 22 21 20 21 23 22 23 25 26
Wind_Direction
147 138 156 193 217 228 216 200 216 231 239 248 254 256 255 259 266 257 265 265 198 229 247 231 248 253 251 255 252 255 264 265 263 262 258 251 253 257 256 258 254 248 250 255 258 249 232 227 223 222 219 217 217 214 210 205 204 204 201 200 200 200 200 198 197 198 199 200 199 200 203 206 209 209 210 213 216 217 218 217 214 213 213 212 209 208
130 167 206 216 218 224 220 212 224 238 249 256 251 261 265 256 265 261 265 274 216 195 256 242 251 258 251 255 258 252 256 261 258 256 258 254 249 253 253 257 256 254 256 260 263 250 227 224 220 218 215 210 210 209 206 205 204 202 201 200 199 197 198 198 199 198 200 201 201 201 204 206 207 208 209 212 215 217 218 218 217 215 214 213 211 210
164 208 224 224 223 233 241 219 220 235 236 242 242 260 268 256 273 270 254 268 248 175 260 258 255 260 255 256 260 257 248 251 254 251 255 255 250 253 251 252 256 257 261 260 259 249 223 218 216 213 210 209 210 208 205 204 202 199 199 199 198 197 197 199 200 200 201 203 203 204 205 205 205 208 211 213 215 216 218 218 218 217 215 214 213 211
208 230 228 224 220 229 247 236 217 245 240 223 224 246 260 250 265 268 244 265 264 193 260 273 267 264 262 262 258 257 252 250 257 255 256 257 248 249 250 253 257 256 258 257 257 252 219 214 214 209 209 209 208 206 202 201 199 197 198 198 197 198 198 199 200 201 202 202 202 204 206 206 206 209 212 213 216 217 218 218 218 218 216 215 214 212
232 233 217 209 207 209 232 240 222 251 257 223 209 225 250 247 243 252 270 309 299 267 270 280 283 271 237 245 251 252 254 251 255 256 258 257 248 249 255 256 255 253 255 257 259 253 215 209 213 210 210 207 203 203 201 200 198 198 198 198 197 198 198 199 200 200 199 197 197 198 200 201 204 209 208 210 215 216 216 217 217 217 216 216 215 214
244 232 162 174 201 202 217 235 214 218 252 251 209 215 237 244 246 256 281 318 312 289 289 259 290 284 200 213 240 248 250 248 249 251 253 254 252 251 255 256 253 251 253 255 260 255 224 211 214 211 208 203 202 205 204 201 199 198 198 197 197 198 199 199 199 197 196 195 194 193 192 193 197 202 206 210 213 212 213 215 216 216 216 216 216 215
246 217 166 180 197 195 204 235 220 200 237 273 222 211 230 241 249 255 267 291 262 262 283 120 263 285 248 193 221 235 239 245 251 254 251 251 253 248 246 254 256 253 251 250 255 251 229 215 209 209 207 203 205 206 204 201 199 198 197 196 197 198 198 199 198 196 195 195 195 196 197 198 198 203 210 214 214 212 212 213 215 215 215 216 217 217
207 196 193 199 192 184 198 235 222 183 206 266 214 190 212 225 237 232 225 233 235 278 292 156 151 274 280 231 200 215 224 242 253 254 254 248 247 249 247 250 253 254 251 242 244 243 229 216 206 208 208 205 206 205 199 198 197 197 197 196 197 198 198 198 197 196 197 197 198 200 202 204 206 210 214 216 214 214 214 213 214 215 215 217 218 218
166 186 201 190 182 193 208 225 194 159 196 252 144 155 174 193 217 180 180 222 280 341 285 200 139 259 280 247 181 208 214 230 242 240 246 245 242 249 251 252 252 254 256 240 233 236 222 210 211 211 209 206 204 201 197 197 197 196 197 196 196 198 198 198 198 198 199 201 201 202 204 207 212 214 216 217 215 215 214 212 214 214 215 216 217 218
164 200 192 166 175 212 218 224 168 163 207 228 110 97 73 81 71 88 138 149 26 305 257 196 161 231 280 272 142 180 203 222 234 233 243 248 249 252 253 260 261 259 261 245 234 238 221 213 216 211 205 202 201 199 198 196 194 194 194 194 196 198 198 198 199 200 201 202 203 205 207 210 213 213 214 216 215 213 212 211 212 212 213 215 215 216
233 48 162 165 187 199 181 152 159 174 194 128 95 57 30 19 31 52 31 68 7 279 237 185 184 198 270 288 141 177 212 222 226 230 252 260 260 258 252 261 265 259 258 247 234 241 228 219 214 202 196 195 195 196 194 193 192 192 193 194 197 198 199 200 201 202 203 204 205 208 210 212 213 211 210 212 211 210 209 209 210 211 212 213 214 214
272 254 210 224 182 129 112 106 12 29 113 107 98 76 28 331 9 24 358 59 227 265 224 188 189 191 234 256 196 236 262 245 221 220 238 244 249 256 253 254 256 253 255 249 233 227 212 199 193 190 192 188 186 188 189 190 191 191 194 195 196 199 200 202 202 203 205 205 208 211 213 214 214 212 211 212 211 209 208 209 208 208 210 211 212 213
283 230 203 220 198 148 131 141 342 357 64 108 114 131 181 295 328 342 311 143 221 257 238 192 182 212 241 245 250 272 281 254 222 218 228 231 238 251 257 256 254 258 262 251 227 211 198 192 190 191 189 182 183 187 188 189 190 192 194 195 196 200 201 202 203 205 206 208 211 213 214 216 216 215 215 216 215 213 211 209 207 206 207 207 208 210
298 277 165 136 265 187 148 174 237 284 178 162 153 159 177 217 244 247 256 266 259 267 262 180 165 245 278 254 228 242 254 246 225 222 228 227 234 246 255 264 273 279 274 253 207 200 208 204 200 198 191 186 188 189 188 189 191 192 194 196 199 202 202 202 205 206 208 211 214 214 215 217 216 217 218 218 218 217 214 211 209 209 208 208 209 210
261 289 206 163 236 186 174 201 205 158 161 188 161 146 185 193 188 207 229 253 265 282 299 196 175 217 264 257 224 223 251 264 240 238 245 244 253 261 267 277 280 271 269 255 184 207 220 207 203 203 197 195 192 189 190 191 192 193 196 199 201 202 202 203 205 207 209 213 215 215 216 217 217 218 219 220 221 219 218 215 212 212 212 211 212 213
213 268 250 212 194 163 183 227 181 119 160 243 123 118 223 209 182 226 254 246 252 302 293 237 221 230 228 262 258 245 263 274 270 281 289 268 258 257 262 266 263 260 273 313 247 245 241 214 206 205 199 198 194 191 193 194 194 197 199 201 202 204 204 205 206 208 212 214 215 215 217 218 218 218 219 221 221 220 220 218 215 215 215 215 215 214
227 267 266 280 9 150 188 262 145 151 209 217 121 184 230 170 158 226 275 300 35 268 265 231 246 280 308 286 273 250 250 263 279 277 261 255 253 252 256 257 258 265 282 307 261 257 253 229 217 210 200 196 193 193 197 199 200 202 202 202 204 205 205 207 210 212 214 215 215 217 218 218 218 218 219 220 221 220 219 219 218 217 217 217 217 216
247 273 265 174 219 282 259 265 335 358 148 128 172 224 215 71 129 162 238 302 271 253 264 266 264 278 304 284 299 356 316 281 268 259 259 269 271 264 262 259 260 268 274 259 242 244 242 226 216 212 207 203 200 199 201 203 204 205 205 205 205 204 205 209 212 214 215 215 216 218 218 218 219 219 220 221 220 219 218 219 219 218 218 218 217 216
276 286 294 124 197 284 10 9 308 336 115 139 194 209 112 187 244 160 184 220 236 247 255 266 271 272 236 248 281 293 276 269 265 269 280 273 258 253 257 260 263 268 276 271 252 245 237 223 215 210 208 208 207 206 207 206 205 206 209 209 209 209 210 212 213 214 216 216 218 220 220 220 220 220 221 220 220 219 218 219 219 217 218 218 217 216
239 261 271 225 194 281 19 181 213 244 269 143 230 318 117 191 201 189 199 178 221 248 254 256 269 274 242 223 241 244 232 235 255 265 260 248 241 243 247 256 264 262 264 268 262 257 246 232 222 211 208 208 208 210 210 208 206 207 209 210 213 215 214 214 214 215 216 217 219 220 221 221 221 220 221 219 218 218 218 219 218 218 218 217 217 216
134 244 256 259 105 255 245 210 188 193 207 193 208 228 227 221 200 244 247 150 209 244 249 250 254 267 269 224 218 245 235 224 240 244 245 247 245 248 246 251 262 264 262 260 258 259 254 246 236 220 214 211 210 213 211 209 209 209 209 211 214 216 215 215 216 217 218 218 218 219 220 221 221 220 220 219 218 219 219 219 218 219 218 217 217 216
151 229 248 245 218 235 242 228 191 194 198 185 196 209 213 218 228 268 256 219 215 233 237 246 246 255 271 260 239 250 245 232 232 225 239 251 244 251 256 253 257 262 260 255 252 256 255 252 247 233 220 210 209 214 213 211 212 210 211 213 215 216 216 218 218 218 219 218 217 219 220 220 219 218 218 218 218 219 219 218 218 218 217 216 217 216
176 177 243 244 233 243 256 257 214 209 220 219 211 211 220 219 209 231 244 231 225 236 237 254 255 243 259 266 265 261 249 236 229 217 233 257 256 265 274 271 268 263 265 274 279 276 272 266 256 237 221 211 209 213 213 212 212 213 215 216 215 217 219 220 221 221 220 218 217 218 219 218 217 217 216 216 217 218 219 219 218 216 215 215 215 214
186 185 241 249 254 264 276 292 280 228 201 247 243 223 224 228 222 229 244 245 235 236 232 253 255 240 250 263 270 276 263 241 244 244 244 254 264 267 265 268 270 270 282 296 295 285 277 274 267 241 225 220 215 214 214 215 215 216 218 218 216 219 222 222 222 223 221 219 218 217 216 216 216 215 215 216 217 218 218 217 216 215 215 214 213 212
211 204 226 242 254 261 269 282 270 238 200 222 239 233 226 229 239 248 265 278 248 235 233 247 255 245 249 261 274 286 280 261 254 246 230 238 258 265 265 272 278 284 293 290 284 288 279 264 254 243 240 236 226 219 218 219 220 220 220 220 219 221 224 223 221 221 221 220 219 216 214 214 213 214 215 216 217 218 217 215 214 214 213 211 211 210
214 205 206 229 239 239 238 237 235 226 224 226 235 242 235 224 231 243 249 246 244 236 232 241 251 252 257 269 277 278 276 273 268 254 229 235 253 261 263 268 274 278 277 274 278 287 275 258 244 241 241 236 231 227 223 223 224 224 225 224 223 224 226 224 221 220 220 219 217 215 214 212 212 213 215 216 217 216 215 213 211 211 210 209 208 207
208 216 217 229 232 236 247 251 251 250 244 238 230 238 241 235 232 236 240 241 244 246 241 240 250 256 258 263 268 269 272 276 275 270 265 260 260 257 249 250 259 265 270 278 285 274 256 245 240 240 237 232 233 232 228 226 226 227 228 228 228 227 227 225 222 220 219 217 215 214 213 212 213 214 215 215 215 214 212 211 210 209 209 208 206 205
171 231 225 231 235 239 249 256 261 263 257 253 251 247 248 246 236 229 235 241 247 255 254 245 248 254 252 249 258 266 269 271 274 279 279 272 267 263 255 253 258 262 272 286 286 273 268 264 261 259 248 233 232 233 233 233 234 234 233 234 233 228 226 224 221 218 217 215 214 214 215 214 214 215 214 214 213 211 210 209 208 208 207 205 204 204
214 239 231 235 241 241 244 250 254 257 257 255 255 255 253 251 245 238 240 244 244 249 256 255 250 251 251 249 252 259 263 268 276 281 279 275 274 271 267 262 260 265 278 283 273 269 272 275 277 276 265 247 238 241 242 243 244 242 239 238 235 228 225 223 219 217 216 213 214 216 216 215 214 213 212 211 209 208 208 207 206 205 204 204 203 204
217 239 235 240 248 245 243 248 250 253 257 257 254 253 252 252 251 248 248 248 245 249 256 259 257 256 257 254 252 254 260 268 275 276 277 278 278 276 276 275 273 272 273 270 266 262 260 262 265 266 266 264 262 262 262 259 255 249 243 240 234 228 226 222 218 217 214 212 216 217 215 214 212 210 209 207 207 206 205 204 204 202 202 203 203 202
226 233 237 245 255 250 244 246 246 247 250 251 251 250 251 254 255 255 254 252 250 253 253 253 256 260 258 256 256 258 261 265 268 270 273 276 278 285 299 313 316 313 308 300 292 287 280 272 268 267 268 268 268 269 269 268 263 254 247 242 235 231 229 222 218 216 214 215 218 217 213 211 209 208 207 205 205 204 203 202 201 200 201 200 200 201
258 248 250 254 259 249 239 241 243 243 244 246 248 249 249 250 249 249 248 245 245 250 253 254 256 255 251 251 253 256 259 262 263 267 271 279 293 320 355 11 5 357 353 348 344 340 331 316 300 286 278 272 270 269 268 268 266 256 247 242 239 238 231 221 216 215 215 218 218 213 209 208 206 204 204 203 203 202 200 199 198 198 198 198 197 198
244 263 267 256 260 255 245 246 248 246 245 243 240 238 239 241 243 246 248 249 246 245 248 249 248 250 253 255 259 263 264 264 266 272 286 312 348 20 33 27 12 3 358 354 352 350 345 338 324 305 295 290 288 289 287 284 278 268 262 258 252 243 229 219 216 215 216 217 214 210 207 205 202 201 201 201 201 199 197 197 196 196 196 196 195 196
235 252 259 256 265 267 261 263 262 249 243 241 226 224 229 234 237 240 242 244 243 243 248 255 270 290 301 311 314 310 303 298 304 358 42 32 22 20 20 17 7 355 350 347 345 344 342 340 335 326 322 318 313 310 306 301 293 284 280 278 270 251 231 220 216 215 215 215 211 208 206 203 201 200 200 198 197 196 195 195 195 195 195 194 193 194
253 258 259 254 261 271 270 269 262 245 240 252 242 230 236 239 240 242 246 249 255 267 285 324 352 357 359 357 351 341 325 319 344 59 56 36 22 8 0 2 357 347 342 338 337 336 335 336 336 333 332 330 330 329 324 316 309 301 293 288 277 256 236 223 217 216 215 212 209 207 204 202 200 199 197 194 193 193 194 194 194 193 193 193 193 195
247 258 260 255 258 266 260 247 250 258 263 293 310 294 276 270 270 268 263 267 341 23 37 39 20 12 12 360 351 345 327 312 294 92 47 26 17 2 349 345 343 338 332 329 328 327 326 328 329 326 325 329 336 340 336 329 324 314 302 294 279 257 240 227 221 219 215 211 210 207 204 200 198 195 193 191 190 191 193 194 193 193 192 192 193 195
233 244 254 255 247 254 262 255 262 279 279 270 290 333 347 322 310 292 272 298 48 42 40 37 20 13 14 360 350 347 337 326 288 60 17 8 359 349 341 330 325 320 316 317 318 320 321 323 328 329 328 331 338 342 340 337 336 327 312 302 285 262 244 231 227 224 219 217 214 210 206 201 196 192 190 189 189 192 194 194 193 193 191 190 191 192
230 229 237 253 240 249 266 265 266 271 269 285 326 334 339 321 307 295 265 167 56 42 38 37 25 14 6 357 353 350 348 353 356 344 349 347 341 339 333 323 322 321 318 321 323 326 330 332 334 334 333 335 340 343 343 343 343 337 325 316 305 280 255 240 237 235 229 226 223 216 210 204 198 193 190 190 192 193 194 194 193 192 191 190 190 192
293 243 237 255 253 253 261 262 268 268 262 20 339 325 334 328 319 308 239 165 42 29 32 33 24 13 2 352 353 356 359 356 336 322 333 334 329 331 329 324 326 325 323 329 332 331 332 334 335 335 338 341 342 342 343 345 346 342 333 328 322 299 270 256 252 250 243 237 233 224 216 209 204 200 196 195 196 195 194 193 192 191 191 191 191 192
338 287 255 257 259 266 266 265 274 274 109 17 336 332 332 321 316 303 223 302 0 358 23 28 9 351 345 332 336 0 6 332 309 307 318 321 319 324 326 324 326 327 328 334 337 334 333 334 336 336 337 338 337 340 342 343 343 343 340 334 323 298 282 278 273 264 250 242 237 228 219 212 208 206 203 200 199 197 195 193 191 189 188 189 190 191
323 294 282 268 265 273 271 269 279 254 136 9 340 338 333 324 323 284 279 320 341 330 352 9 327 292 299 299 304 327 285 263 278 290 302 312 316 322 324 324 325 325 325 328 330 332 332 332 332 331 329 330 333 337 340 341 339 336 336 335 321 308 305 302 292 278 260 248 240 230 221 215 211 209 206 203 199 196 195 194 192 189 187 187 188 188
279 261 266 265 273 285 274 274 285 257 148 28 356 348 2 6 334 292 305 312 317 314 322 321 290 273 277 276 279 285 274 274 280 287 301 315 317 317 320 324 323 323 324 325 325 327 328 327 328 328 327 329 332 333 335 336 332 326 326 325 316 316 319 316 305 293 277 258 243 231 221 216 212 209 206 203 198 193 192 192 192 190 187 187 188 186
287 284 280 261 269 284 269 262 269 255 327 11 359 357 31 41 258 275 296 285 274 292 296 285 272 274 292 297 286 275 282 290 288 293 307 312 310 312 316 319 320 321 322 322 322 326 328 325 325 326 325 327 329 330 332 332 324 319 317 308 308 316 319 314 307 298 283 266 249 235 223 214 211 208 205 202 198 193 190 189 189 188 187 187 186 184
264 256 267 266 269 280 264 260 277 297 325 348 357 334 315 282 237 247 268 266 263 258 254 267 276 258 264 297 295 285 289 294 290 298 304 304 305 308 309 313 317 317 317 318 321 327 329 326 323 323 322 324 327 328 329 326 318 313 309 305 308 313 312 306 300 289 276 265 250 239 227 216 211 208 204 201 197 192 189 188 187 186 187 187 185 184
227 219 246 261 261 255 251 265 286 301 309 311 230 236 285 283 245 216 213 230 250 236 212 240 275 258 237 267 288 289 285 285 288 295 296 296 300 303 305 312 315 314 315 317 319 324 327 325 322 320 319 321 323 324 323 320 313 306 304 307 309 307 303 299 288 273 266 258 246 237 228 218 212 208 205 202 198 194 191 188 186 186 187 188 187 187
255 262 265 258 262 267 259 259 274 292 295 285 272 283 294 285 249 205 201 220 241 236 217 231 257 263 258 260 275 284 282 283 289 289 289 294 299 303 308 312 311 312 314 314 318 323 324 322 320 318 316 316 318 320 319 317 311 303 303 307 307 302 296 287 271 260 254 245 239 233 223 216 211 207 206 203 200 199 197 192 189 188 188 189 190 190
252 249 251 251 267 276 266 263 271 278 280 285 291 295 290 266 230 204 206 223 228 221 227 239 254 273 279 270 273 283 287 290 293 294 296 300 301 305 310 307 305 309 310 310 315 319 320 319 317 315 313 312 314 318 318 315 311 306 304 305 305 301 293 280 263 253 244 235 230 224 215 211 209 205 204 203 201 202 201 197 194 190 188 190 191 192
244 209 209 239 243 243 257 273 279 273 272 278 284 284 270 242 228 221 216 218 221 225 232 245 265 280 286 284 286 292 294 295 297 300 303 302 299 302 303 300 301 305 306 308 312 315 316 315 311 310 309 307 310 314 314 312 310 309 307 305 303 298 289 275 262 253 245 237 227 218 212 210 207 204 204 204 203 202 201 200 198 196 196 196 194 192
253 294 240 247 253 261 269 275 279 280 280 277 266 253 236 221 221 231 237 234 239 250 260 273 282 283 285 289 294 298 294 294 298 304 303 300 299 296 293 295 300 302 302 304 308 309 309 307 306 307 305 303 306 310 311 310 310 310 309 307 305 298 284 270 263 255 248 239 226 218 213 210 208 208 207 207 207 208 207 205 203 204 206 206 202 199
198 248 249 251 260 264 261 259 262 270 276 274 271 256 225 204 199 215 235 240 240 255 281 290 288 285 280 277 279 279 280 283 290 295 293 290 292 294 295 298 300 299 299 302 304 304 303 304 306 306 303 302 305 308 308 308 308 307 306 306 305 299 283 270 263 255 246 237 227 220 215 210 211 212 210 210 211 212 214 216 214 213 215 213 210 208
218 235 239 239 245 251 254 252 253 256 258 270 276 257 203 185 195 218 233 242 244 264 289 291 290 293 291 284 277 271 274 281 286 287 284 280 282 286 291 294 295 296 298 300 301 300 301 303 305 303 301 302 304 305 305 304 303 301 300 300 301 300 289 275 264 254 246 237 228 223 217 211 210 209 209 211 212 211 212 216 217 220 222 217 210 208